Regional Weather Roundup
Issued by NWS Goodland, KS

Home | Current Version | Previous Version | Text Only | Print | Product List | Glossary Off
Versions: 1 2 3 4 5 6 7 8 9 10 11 12 13 14 15 16 17 18 19 20 21 22 23 24 25 26 27 28 29 30 31 32 33 34 35 36 37 38 39 40 41 42 43 44 45 46 47 48 49 50

000
ASUS43 KGLD 031108
RWRGLD

GOODLAND FORECAST AREA HOURLY WEATHER ROUNDUP
NATIONAL WEATHER SERVICE GOODLAND KS
500 AM MDT MON AUG 03 2015

...OFFICIAL OBSERVATIONS...

CITY           SKY/WX    TMP DP  RH WIND       PRES   REMARKS
GOODLAND KS    MOCLDY    63  58  83 W3        30.00S
HILL CITY KS   CLEAR     66  62  87 CALM      29.95R
IMPERIAL NEB   CLEAR     62  55  77 NE3       30.00R
MCCOOK NEB     CLEAR     62  57  83 NE5       29.97S
AKRON CO       MOCLDY    68  50  52 S9        30.05S
BURLINGTON CO  CLOUDY    64  59  83 SW5       30.03F
LIMON CO       CLOUDY    57  52  83 N3        30.11F
$$

...UNOFFICIAL OBSERVATIONS...

CITY           SKY/WX    TMP DP  RH WIND       PRES   REMARKS
COLBY KS       CLEAR     64  61  88 NW3       29.99S
NORTON KS      CLEAR     61  54  77 NE3       29.95S
SHARON SPRINGS   N/A     64  61  89 CALM        N/A
KIT CARSON CO    N/A     64  56  77 MISG        N/A
$$


USA.gov is the U.S. government's official web portal to all federal, state and local government web resources and services.